Temp
16 15 14 14 14 14 14 14 14 13 13 12 13 12 12 12 11 13 14 14 14 13 13 13 13 12 13 13 10 8 9 9 9 9 8 8 8 7 7 7 7 7 6 6 6 6 5 5 5 5 5 5 5 5 5 5 4 4 5 5 5 5 5 4 4 4 4 5 4 4 4 4 4 4 3 3 3 3 3 4 4 3 3 3 3 4
15 15 14 14 14 14 14 14 14 14 13 12 13 13 13 12 12 13 13 13 14 13 12 13 12 12 13 14 11 8 8 9 9 8 8 7 7 7 7 6 6 6 5 5 5 5 5 5 5 5 5 4 4 4 4 4 4 4 4 4 4 4 4 4 4 4 4 4 4 4 4 4 3 3 3 3 3 3 3 3 3 3 3 3 3 3
15 15 15 14 14 15 15 14 14 14 13 12 12 12 13 12 12 12 13 13 13 12 12 12 12 12 13 12 10 8 8 8 8 8 7 7 7 7 6 5 5 5 5 5 5 5 5 5 5 5 4 4 4 4 4 4 3 3 3 3 4 4 4 4 3 3 3 3 3 3 3 3 3 3 3 3 3 3 3 3 3 3 3 3 3 3
15 15 15 14 14 15 15 14 14 14 13 12 12 12 12 12 11 11 12 13 12 12 12 12 11 12 12 10 8 8 8 7 7 7 7 7 7 6 6 5 5 5 5 5 5 4 4 5 5 4 4 4 4 4 3 3 3 3 3 3 3 3 3 3 3 2 2 2 2 2 2 2 2 2 2 3 3 3 2 2 3 3 3 3 3 2
15 15 15 15 15 15 14 14 13 13 13 12 12 13 12 12 11 11 11 11 11 11 12 12 11 12 12 10 8 8 7 7 7 7 7 6 6 6 6 5 5 5 5 5 5 4 4 4 4 4 4 3 3 3 3 3 2 2 2 2 2 2 2 2 2 2 2 2 2 2 2 2 2 2 2 2 2 2 2 2 2 3 3 3 3 2
15 15 15 15 15 14 13 13 13 12 12 12 12 13 13 12 11 11 11 10 10 11 12 12 11 11 12 10 8 7 7 7 6 6 5 5 5 5 5 5 5 5 5 5 5 4 4 4 3 3 3 3 3 2 2 2 2 2 2 2 1 1 1 1 1 1 1 1 1 1 1 1 2 2 2 2 2 2 2 2 2 2 2 2 2 2
15 15 14 14 14 13 13 13 12 12 12 12 13 14 12 12 11 11 11 10 9 10 12 12 10 9 11 11 8 7 6 6 6 5 5 5 5 5 5 5 5 5 5 5 4 4 4 3 3 3 3 3 2 2 2 2 2 2 2 1 1 0 0 0 0 0 0 0 -0 0 1 1 1 1 1 1 1 1 1 2 2 2 2 2 2 2
15 15 14 14 14 13 13 13 13 12 11 12 13 13 12 11 11 11 10 9 9 10 11 12 11 10 10 10 8 6 6 6 6 4 4 5 5 5 5 4 4 4 4 4 4 4 3 3 3 3 3 2 2 2 2 2 1 1 1 0 0 0 0 0 -0 -0 -0 -1 -1 -0 0 -0 0 0 0 0 0 1 1 1 1 2 2 2 2 2
14 14 14 14 13 13 13 13 12 12 12 13 13 12 11 11 11 11 10 9 9 10 10 10 10 9 9 9 7 6 6 6 5 4 4 5 5 4 4 4 4 4 3 3 3 3 3 3 3 3 2 2 2 2 1 1 1 1 0 -0 -0 -0 -0 -0 -0 -0 -0 -1 -1 -1 -1 -1 -1 -0 -0 -0 -0 -0 -0 -0 0 1 1 1 2 2
14 13 13 13 13 13 13 13 13 12 12 12 12 11 11 11 11 10 10 10 10 10 10 9 9 8 8 9 7 7 7 5 4 4 4 4 4 4 4 3 3 3 3 2 2 2 2 2 2 2 2 2 2 1 1 1 1 0 -0 -0 -0 -1 -1 -1 -1 -0 -1 -1 -1 -1 -1 -1 -1 -1 -1 -1 -1 -1 -0 -0 -0 -0 0 1 1 1
13 12 12 13 13 13 13 13 13 13 11 12 12 11 10 10 10 10 11 11 9 10 10 9 9 8 6 8 7 6 6 5 4 4 4 4 4 3 3 3 3 2 2 2 2 2 2 2 2 2 1 1 1 1 1 1 0 -0 -0 -1 -1 -1 -1 -1 -1 -1 -1 -2 -2 -2 -2 -2 -2 -1 -1 -1 -1 -1 -1 -1 -1 -1 -1 -0 0 1
13 13 13 13 13 12 13 13 14 13 11 11 11 9 9 9 9 10 10 10 8 8 9 8 9 8 6 7 7 5 4 5 5 4 3 3 3 3 3 2 2 2 2 2 2 2 2 1 1 1 1 1 1 1 1 0 -0 -1 -1 -1 -1 -1 -1 -1 -1 -1 -2 -2 -2 -3 -3 -3 -2 -2 -2 -1 -1 -1 -1 -1 -1 -1 -1 -1 -1 0
13 13 13 13 12 12 13 13 13 12 11 11 10 9 8 8 8 8 8 8 8 8 9 8 8 7 7 7 7 5 4 5 5 4 3 3 3 2 2 2 2 2 1 1 1 1 1 1 1 1 1 1 0 0 0 -0 -1 -1 -1 -1 -1 -1 -1 -1 -2 -2 -2 -3 -3 -3 -3 -3 -3 -3 -2 -2 -2 -2 -2 -2 -1 -2 -2 -2 -2 -1
13 13 12 13 13 13 13 12 11 11 10 10 10 9 8 6 6 6 6 7 7 7 8 8 7 7 7 7 6 5 5 4 4 4 3 3 2 2 1 1 1 1 1 1 1 1 0 0 0 0 0 0 0 0 -0 -1 -1 -1 -1 -1 -1 -2 -2 -2 -2 -2 -3 -3 -3 -3 -4 -4 -4 -4 -3 -3 -3 -3 -3 -3 -3 -3 -3 -3 -2 -2
11 12 13 13 12 12 13 12 11 11 10 10 10 10 8 7 6 5 5 6 6 6 7 7 7 6 7 6 6 5 5 4 4 3 3 2 2 1 1 1 1 1 1 1 0 0 -0 -0 0 0 0 0 -0 -0 -1 -1 -1 -1 -1 -1 -2 -2 -2 -2 -2 -2 -3 -3 -4 -4 -4 -4 -4 -4 -4 -4 -4 -4 -4 -4 -4 -3 -3 -3 -3 -3
10 12 13 12 11 12 12 12 11 11 10 10 10 10 8 8 7 6 6 6 5 5 5 6 7 7 7 6 5 5 4 4 3 2 2 1 1 1 1 1 0 0 0 -0 -0 -1 -1 -0 -0 -0 -0 -0 -0 -1 -1 -1 -1 -1 -2 -2 -2 -2 -2 -2 -2 -3 -3 -4 -4 -4 -4 -4 -5 -5 -5 -5 -5 -4 -4 -5 -4 -4 -4 -3 -3 -3
9 11 12 11 11 12 11 11 11 11 10 10 9 9 9 8 7 6 5 6 5 4 4 6 6 6 6 6 5 4 3 3 2 2 1 0 0 0 -0 -0 -0 -0 -0 -1 -1 -1 -1 -1 -1 -1 -1 -1 -1 -1 -1 -1 -1 -2 -2 -2 -2 -2 -2 -2 -3 -3 -3 -4 -4 -4 -4 -5 -5 -5 -5 -5 -5 -5 -5 -6 -6 -5 -5 -4 -3 -3
8 9 10 10 11 12 10 11 11 10 10 10 9 9 9 8 7 6 5 5 4 3 4 6 5 4 4 4 3 3 2 2 2 1 0 -0 -0 -0 -1 -1 -1 -1 -1 -1 -1 -1 -1 -1 -1 -1 -1 -1 -1 -1 -2 -2 -2 -2 -2 -2 -2 -3 -3 -3 -3 -3 -4 -4 -5 -5 -5 -5 -5 -5 -5 -6 -6 -6 -6 -6 -6 -6 -6 -5 -4 -3
8 8 10 10 11 11 10 11 11 10 10 10 9 9 8 7 6 6 5 4 3 3 4 5 4 4 3 2 2 2 1 1 1 -0 -1 -1 -1 -1 -1 -1 -1 -1 -2 -2 -2 -2 -2 -2 -2 -1 -2 -2 -2 -3 -3 -3 -3 -3 -3 -3 -3 -3 -3 -3 -4 -4 -4 -5 -5 -5 -5 -5 -6 -6 -6 -6 -6 -6 -6 -7 -7 -7 -7 -6 -5 -4
8 8 9 10 10 10 11 11 10 10 10 9 9 9 8 7 6 5 5 4 4 3 3 3 3 3 3 2 2 1 1 1 -1 -1 -1 -2 -2 -2 -2 -2 -2 -2 -2 -2 -2 -2 -2 -2 -2 -2 -3 -3 -3 -3 -3 -3 -3 -3 -4 -4 -4 -4 -4 -4 -4 -5 -5 -5 -5 -6 -6 -6 -6 -6 -6 -6 -7 -7 -7 -7 -7 -7 -7 -6 -5 -4
8 8 8 9 9 9 10 10 9 9 9 8 8 8 7 7 6 5 5 5 4 3 2 2 2 3 4 3 2 1 1 0 -1 -2 -2 -2 -2 -2 -2 -2 -2 -2 -3 -3 -3 -3 -2 -3 -3 -3 -4 -4 -4 -4 -4 -4 -4 -4 -5 -5 -5 -5 -5 -5 -5 -5 -6 -6 -6 -6 -6 -6 -6 -7 -7 -7 -7 -8 -8 -8 -8 -8 -7 -6 -5 -5
7 7 7 7 7 8 10 9 9 9 9 8 8 7 7 6 5 4 4 5 4 3 2 1 1 3 4 4 2 2 1 -1 -1 -2 -2 -2 -2 -2 -2 -3 -3 -3 -3 -3 -3 -3 -3 -3 -4 -4 -4 -5 -5 -5 -5 -5 -5 -5 -6 -6 -6 -6 -6 -6 -6 -6 -6 -6 -7 -7 -7 -7 -7 -8 -8 -8 -8 -8 -8 -8 -8 -7 -7 -6 -5 -5
6 6 6 6 6 8 9 8 7 8 9 9 8 7 7 6 5 4 3 4 4 3 3 2 1 2 3 3 2 1 -0 -1 -1 -2 -2 -2 -3 -3 -3 -3 -3 -3 -3 -3 -3 -3 -4 -4 -4 -5 -5 -5 -5 -5 -5 -5 -6 -6 -6 -7 -7 -7 -7 -7 -7 -7 -7 -7 -7 -7 -7 -8 -8 -9 -9 -9 -9 -9 -8 -8 -8 -7 -7 -6 -6 -5
6 6 6 7 7 8 9 8 8 8 8 8 7 7 6 6 5 5 4 3 3 2 2 2 1 2 3 3 2 1 -1 -2 -2 -2 -3 -3 -3 -3 -3 -3 -3 -3 -3 -3 -3 -4 -4 -5 -5 -5 -5 -6 -6 -6 -6 -6 -7 -7 -7 -7 -7 -7 -7 -8 -7 -8 -8 -7 -8 -8 -8 -9 -9 -9 -9 -9 -9 -9 -8 -8 -8 -7 -7 -6 -6 -6
6 7 7 7 6 7 8 8 7 8 7 6 6 6 6 5 5 4 4 2 1 2 3 1 0 2 4 3 2 0 -1 -2 -2 -2 -3 -3 -3 -3 -3 -3 -3 -4 -3 -3 -4 -4 -5 -5 -5 -5 -6 -6 -6 -6 -7 -7 -7 -8 -8 -8 -8 -8 -8 -8 -8 -8 -8 -8 -9 -9 -9 -10 -10 -10 -10 -10 -9 -9 -8 -8 -8 -7 -7 -6 -6 -6
6 7 7 6 5 5 5 5 6 6 6 6 6 6 5 4 4 3 3 2 1 2 2 0 0 2 3 2 1 -1 -2 -3 -2 -2 -3 -3 -3 -3 -4 -4 -4 -4 -4 -4 -4 -5 -5 -5 -5 -5 -6 -6 -7 -7 -8 -8 -8 -8 -8 -9 -9 -9 -9 -9 -9 -9 -9 -10 -10 -10 -10 -10 -11 -10 -10 -10 -9 -9 -9 -8 -8 -8 -7 -7 -7 -7
5 6 6 6 5 5 5 5 6 6 5 4 5 5 5 4 2 2 3 2 2 1 0 1 1 1 1 1 -0 -2 -3 -3 -3 -3 -3 -3 -3 -3 -4 -4 -4 -4 -4 -4 -5 -5 -5 -6 -5 -6 -6 -7 -7 -8 -8 -9 -9 -9 -9 -9 -10 -10 -10 -10 -10 -11 -11 -11 -11 -11 -11 -11 -11 -11 -10 -10 -10 -9 -9 -9 -9 -8 -8 -7 -7 -7
5 6 5 5 5 5 5 5 5 5 4 5 5 5 5 3 2 2 3 2 2 -0 -0 2 1 -1 -1 -0 -1 -3 -3 -3 -3 -3 -3 -3 -4 -4 -4 -4 -4 -4 -4 -5 -5 -5 -6 -6 -6 -6 -7 -8 -8 -9 -9 -9 -9 -10 -10 -10 -11 -11 -11 -12 -12 -12 -12 -11 -11 -12 -12 -12 -12 -11 -11 -11 -11 -10 -10 -9 -9 -9 -8 -8 -7 -7
5 5 5 5 5 5 5 5 5 5 5 5 5 4 4 3 2 2 2 2 1 -0 -0 1 -0 -1 -1 -1 -2 -3 -3 -3 -3 -3 -3 -3 -4 -4 -4 -4 -4 -4 -5 -5 -5 -5 -6 -6 -6 -7 -8 -8 -9 -9 -10 -10 -10 -11 -11 -11 -12 -12 -12 -13 -12 -12 -12 -12 -13 -13 -13 -13 -13 -12 -12 -12 -11 -11 -10 -10 -9 -9 -9 -8 -8 -8
5 5 6 5 4 4 5 5 5 5 5 5 4 4 3 2 2 1 1 1 0 -0 -0 -0 -1 -1 -1 -1 -3 -2 -2 -3 -3 -3 -3 -4 -4 -4 -4 -4 -5 -5 -5 -5 -5 -6 -6 -6 -7 -7 -8 -9 -9 -10 -10 -11 -11 -12 -12 -12 -12 -13 -13 -13 -13 -13 -13 -13 -13 -13 -13 -13 -13 -13 -12 -12 -11 -11 -11 -10 -10 -10 -10 -10 -10 -10
5 6 5 4 4 4 5 5 5 4 4 4 3 4 3 2 1 0 -0 0 -0 -1 -0 -1 -1 -1 -1 -2 -2 -2 -2 -3 -3 -3 -4 -4 -4 -4 -4 -4 -5 -5 -5 -5 -5 -6 -6 -6 -7 -8 -9 -9 -10 -10 -11 -11 -12 -12 -13 -13 -13 -13 -13 -13 -13 -14 -14 -14 -14 -14 -14 -14 -13 -13 -13 -12 -12 -11 -11 -12 -12 -11 -11 -11 -11 -11
4 4 4 4 3 4 5 5 4 4 4 3 4 4 3 1 0 -0 -0 -0 -1 -1 -1 -1 -2 -2 -2 -2 -2 -2 -2 -3 -3 -4 -4 -4 -4 -4 -4 -5 -5 -5 -5 -5 -6 -6 -6 -7 -8 -9 -9 -10 -11 -11 -12 -12 -13 -13 -13 -13 -13 -13 -13 -13 -14 -14 -14 -14 -14 -14 -14 -14 -13 -13 -13 -12 -12 -12 -12 -12 -12 -12 -12 -12 -12 -11
4 4 4 3 3 4 5 4 3 3 3 4 4 3 2 1 -0 -1 -1 -0 0 -0 -1 -2 -3 -3 -2 -2 -3 -3 -3 -4 -4 -4 -4 -4 -4 -4 -4 -5 -5 -5 -5 -5 -6 -6 -6 -7 -8 -9 -10 -11 -11 -12 -12 -13 -13 -14 -14 -14 -14 -14 -14 -14 -14 -15 -14 -14 -14 -14 -14 -14 -14 -14 -13 -13 -13 -13 -13 -13 -13 -13 -13 -12 -12 -11
4 3 4 3 3 3 4 3 2 3 3 4 3 1 1 0 -1 -1 -1 -1 0 0 -1 -2 -2 -2 -2 -3 -3 -3 -3 -4 -4 -4 -4 -4 -4 -4 -4 -5 -5 -5 -6 -6 -6 -6 -7 -7 -9 -10 -10 -11 -12 -12 -13 -13 -14 -14 -14 -14 -14 -14 -14 -15 -15 -15 -15 -14 -14 -14 -14 -14 -14 -14 -14 -13 -13 -13 -14 -14 -14 -14 -13 -13 -12 -12
3 3 3 3 3 3 3 2 2 2 4 4 2 1 1 0 -0 -0 0 0 1 -0 -1 -2 -3 -2 -2 -3 -3 -3 -3 -3 -3 -4 -4 -4 -4 -4 -5 -5 -5 -5 -6 -6 -6 -7 -7 -8 -9 -10 -11 -11 -12 -13 -13 -14 -14 -14 -15 -15 -15 -15 -15 -15 -15 -15 -15 -15 -15 -15 -15 -15 -15 -14 -14 -14 -14 -14 -14 -14 -14 -14 -14 -13 -13 -12
4 3 3 3 3 3 3 2 1 2 5 4 1 1 1 0 0 0 -1 -0 -0 -1 -2 -3 -3 -2 -2 -3 -3 -3 -3 -3 -4 -4 -4 -4 -4 -4 -5 -5 -5 -6 -6 -6 -6 -7 -8 -9 -10 -11 -11 -12 -13 -13 -14 -14 -15 -15 -15 -15 -15 -15 -15 -15 -15 -15 -15 -15 -15 -15 -15 -15 -15 -15 -15 -15 -15 -15 -15 -15 -14 -14 -14 -14 -13 -12
4 3 3 2 2 3 2 2 2 3 4 3 1 1 1 0 1 -0 -2 -1 -1 -1 -2 -2 -2 -2 -3 -3 -3 -3 -3 -4 -5 -4 -4 -4 -4 -4 -5 -5 -5 -6 -6 -6 -7 -7 -8 -9 -10 -11 -12 -12 -13 -14 -14 -15 -15 -15 -15 -15 -15 -16 -15 -15 -15 -15 -15 -15 -15 -15 -15 -15 -15 -15 -15 -15 -15 -15 -15 -15 -15 -15 -14 -14 -13 -13
3 3 3 2 3 3 2 1 1 2 2 2 1 1 1 1 1 -0 -2 -2 -1 -2 -2 -2 -3 -3 -3 -3 -3 -4 -4 -5 -6 -5 -4 -4 -4 -4 -5 -5 -5 -6 -6 -7 -7 -8 -9 -10 -10 -11 -12 -13 -13 -14 -15 -15 -15 -15 -16 -16 -16 -16 -16 -15 -15 -15 -15 -15 -16 -16 -15 -15 -15 -16 -16 -16 -16 -16 -16 -15 -15 -15 -14 -14 -13 -13
3 2 2 2 3 2 1 0 0 0 1 2 1 2 2 1 0 0 -2 -2 -1 -1 -1 -2 -3 -3 -3 -4 -4 -4 -5 -6 -7 -5 -4 -4 -4 -5 -5 -5 -6 -6 -7 -7 -8 -8 -9 -10 -11 -12 -12 -13 -14 -15 -15 -15 -15 -16 -16 -16 -16 -16 -16 -16 -16 -16 -16 -16 -16 -16 -16 -16 -16 -16 -16 -16 -16 -16 -16 -16 -15 -15 -15 -14 -13 -13
3 2 2 2 2 2 1 1 0 0 1 1 1 2 1 1 1 -1 -3 -3 -1 -1 -2 -2 -3 -3 -4 -4 -4 -5 -6 -6 -6 -5 -4 -4 -5 -5 -5 -6 -6 -7 -7 -8 -8 -9 -10 -11 -11 -12 -13 -14 -14 -15 -15 -16 -16 -16 -16 -16 -16 -16 -16 -16 -16 -16 -16 -16 -16 -16 -16 -16 -16 -16 -16 -16 -16 -16 -16 -16 -15 -15 -15 -14 -13 -12
3 2 2 2 2 1 0 0 1 1 2 2 2 2 1 1 -0 -3 -4 -3 -1 -2 -2 -2 -3 -4 -4 -4 -5 -5 -5 -5 -5 -5 -4 -5 -5 -5 -5 -6 -7 -7 -8 -8 -9 -10 -10 -11 -12 -12 -13 -14 -15 -15 -15 -16 -16 -16 -16 -16 -16 -16 -16 -16 -16 -16 -16 -16 -16 -16 -16 -16 -16 -16 -16 -16 -16 -16 -16 -16 -15 -15 -14 -14 -12 -11
3 2 2 1 1 1 1 1 1 1 3 3 2 2 2 -1 -3 -3 -2 -1 -1 -2 -2 -3 -3 -4 -4 -4 -4 -4 -4 -4 -4 -5 -5 -5 -6 -6 -6 -7 -7 -8 -8 -9 -9 -10 -11 -12 -12 -13 -13 -15 -15 -15 -16 -16 -16 -16 -16 -16 -16 -16 -16 -17 -17 -17 -17 -16 -17 -16 -16 -17 -16 -16 -16 -16 -16 -16 -16 -15 -15 -14 -14 -13 -11 -10
2 2 2 2 1 1 2 1 -1 0 3 3 2 1 1 -1 -2 -2 -1 -2 -2 -2 -3 -3 -4 -3 -4 -4 -4 -4 -5 -5 -5 -5 -6 -6 -6 -7 -7 -7 -8 -9 -9 -10 -10 -11 -12 -13 -13 -13 -14 -15 -16 -16 -16 -17 -17 -16 -17 -16 -16 -17 -17 -17 -17 -17 -17 -17 -17 -17 -17 -17 -17 -16 -16 -16 -16 -16 -15 -15 -15 -14 -13 -12 -11 -11
2 2 2 1 1 0 0 -1 -0 2 3 3 1 0 -0 -0 -1 -1 -2 -3 -2 -2 -3 -4 -3 -3 -4 -4 -4 -5 -5 -5 -5 -6 -6 -7 -7 -7 -8 -8 -9 -10 -10 -11 -11 -12 -13 -13 -14 -14 -15 -16 -16 -16 -17 -17 -17 -17 -17 -17 -17 -17 -17 -17 -17 -17 -17 -17 -17 -17 -17 -17 -17 -16 -16 -16 -16 -16 -15 -15 -15 -14 -13 -13 -12 -11
2 3 3 1 1 1 1 1 3 3 3 2 1 0 0 -0 -1 -1 -2 -3 -3 -3 -3 -4 -4 -4 -4 -4 -5 -5 -5 -5 -6 -6 -7 -7 -8 -8 -9 -9 -10 -11 -11 -12 -13 -13 -14 -14 -14 -14 -15 -16 -17 -17 -17 -17 -17 -17 -17 -17 -17 -17 -17 -17 -17 -17 -17 -17 -17 -17 -17 -17 -17 -16 -16 -16 -16 -15 -15 -15 -15 -14 -14 -13 -13 -12
2 2 2 2 2 2 2 3 3 2 2 1 1 0 -0 -1 -1 -2 -2 -3 -3 -3 -3 -4 -4 -4 -4 -4 -5 -5 -5 -6 -6 -7 -8 -8 -9 -9 -10 -11 -11 -12 -12 -13 -14 -14 -14 -15 -15 -15 -16 -17 -17 -17 -17 -17 -17 -17 -17 -17 -18 -18 -17 -18 -18 -18 -17 -17 -17 -17 -17 -17 -17 -16 -16 -16 -16 -15 -15 -15 -15 -15 -14 -13 -13 -12
2 2 2 2 2 1 1 2 2 1 1 0 -0 -0 -0 -1 -1 -2 -3 -3 -3 -3 -3 -4 -4 -4 -4 -5 -5 -6 -6 -6 -7 -8 -9 -9 -10 -11 -11 -12 -12 -13 -14 -15 -15 -15 -15 -15 -15 -16 -17 -17 -17 -18 -18 -18 -18 -18 -18 -18 -18 -18 -18 -18 -18 -18 -18 -18 -17 -17 -17 -17 -17 -16 -16 -16 -16 -15 -15 -15 -15 -15 -14 -14 -13 -12
2 2 2 1 1 0 0 2 2 1 1 0 -0 -1 -1 -2 -2 -2 -3 -3 -3 -3 -3 -3 -4 -4 -5 -5 -6 -7 -7 -7 -8 -9 -10 -11 -11 -12 -12 -13 -13 -15 -15 -15 -15 -15 -16 -16 -16 -17 -17 -18 -18 -18 -18 -18 -18 -18 -18 -18 -18 -18 -18 -18 -18 -18 -18 -18 -18 -17 -17 -17 -17 -16 -16 -16 -16 -15 -15 -15 -15 -14 -14 -13 -13 -12
2 2 2 1 0 0 1 1 1 -1 -1 -0 -1 -1 -2 -2 -2 -3 -3 -3 -4 -4 -4 -4 -5 -5 -6 -6 -7 -8 -8 -9 -10 -10 -11 -12 -13 -13 -13 -14 -15 -16 -16 -16 -16 -16 -17 -17 -17 -18 -18 -18 -18 -18 -18 -18 -18 -18 -18 -18 -18 -18 -18 -18 -18 -18 -18 -18 -18 -18 -17 -17 -17 -16 -16 -16 -16 -15 -15 -15 -14 -14 -13 -13 -12 -11
1 2 1 -0 -1 -1 -1 0 -1 -2 -2 -2 -1 -2 -2 -2 -3 -3 -4 -4 -4 -5 -5 -6 -6 -7 -7 -7 -8 -9 -10 -11 -11 -12 -13 -13 -13 -14 -14 -15 -16 -17 -16 -16 -17 -18 -18 -18 -18 -18 -18 -18 -18 -18 -18 -19 -19 -18 -19 -19 -18 -19 -19 -19 -18 -18 -18 -18 -18 -18 -17 -17 -17 -16 -16 -16 -15 -15 -15 -15 -14 -14 -13 -12 -11 -11
1 1 1 -1 -2 -1 -0 -0 -1 -2 -2 -2 -2 -2 -3 -3 -3 -4 -4 -5 -5 -6 -6 -7 -8 -8 -9 -9 -10 -10 -11 -12 -13 -13 -13 -14 -14 -15 -16 -17 -17 -17 -17 -17 -18 -19 -19 -19 -18 -19 -19 -18 -19 -19 -19 -19 -19 -19 -19 -19 -19 -19 -19 -19 -19 -18 -18 -18 -18 -17 -17 -17 -16 -16 -16 -15 -15 -15 -15 -15 -14 -13 -13 -12 -11 -11
Height
810 816 822 825 826 827 824 824 826 826 828 828 825 824 824 825 823 816 807 801 802 802 797 795 795 793 789 786 793 800 800 803 806 808 811 814 817 820 822 823 824 826 827 827 826 825 825 824 823 822 821 820 818 816 814 811 809 808 807 806 804 803 802 799 797 794 792 790 787 785 784 783 782 781 779 779 779 778 778 776 774 772 770 769 767 765
813 820 827 826 825 824 823 824 823 822 825 826 825 823 822 822 818 811 808 803 801 804 799 793 793 794 787 780 786 798 802 804 807 810 814 817 821 822 824 826 827 828 827 827 826 825 824 823 822 821 820 819 817 815 813 811 809 808 807 806 803 801 800 798 796 794 792 790 787 784 782 781 780 779 777 776 776 775 775 775 773 771 769 767 766 764
819 823 825 823 824 822 822 823 821 822 826 828 827 824 821 821 816 807 803 802 803 807 799 791 793 793 787 786 793 800 804 808 811 814 818 821 823 824 826 829 829 828 827 826 826 824 823 822 821 820 819 818 817 815 813 812 810 809 807 805 803 801 799 797 794 793 791 790 788 785 783 781 778 777 775 774 773 773 772 772 771 769 767 766 764 763
824 824 821 822 823 820 821 823 823 825 826 828 828 825 822 822 824 814 802 801 807 808 800 792 793 791 789 795 802 805 807 812 816 817 820 822 825 827 828 829 829 827 827 826 825 824 822 821 821 820 819 818 817 815 813 811 809 808 806 805 803 800 798 796 794 792 790 788 786 784 782 779 777 775 773 772 771 770 770 768 768 767 765 764 762 761
825 823 820 822 822 820 823 824 826 828 826 828 827 823 821 819 823 821 809 807 806 803 800 796 793 787 786 797 807 811 813 816 818 820 823 826 827 828 828 828 828 827 827 827 825 824 823 822 822 821 820 818 816 814 812 810 808 806 805 803 801 800 797 796 793 790 788 785 784 782 780 777 774 772 771 770 769 768 767 766 765 764 762 761 760 759
824 822 820 822 821 824 827 824 826 829 829 829 823 819 820 817 819 818 813 815 812 804 797 796 802 795 786 797 810 814 816 818 821 824 827 829 828 828 829 829 829 829 828 828 826 826 825 824 823 821 819 817 814 813 811 809 807 805 803 801 800 798 796 794 792 789 786 783 782 781 779 776 774 771 770 768 767 765 764 763 762 761 760 759 757 757
822 822 823 824 825 827 829 826 826 828 830 829 821 817 819 820 821 815 813 820 820 811 800 798 811 809 791 796 810 816 820 822 824 828 829 830 830 830 831 831 831 830 829 829 828 827 826 824 822 820 817 815 812 810 809 807 805 803 801 799 797 796 794 792 790 787 784 782 782 781 778 776 774 771 769 767 766 764 762 761 759 758 757 756 755 754
822 823 825 826 827 827 827 826 826 827 830 825 818 819 821 820 819 814 815 822 820 813 807 803 809 809 798 800 812 818 822 824 826 832 832 830 831 831 832 832 831 831 829 829 828 826 826 823 820 818 814 812 810 808 807 805 803 801 799 797 795 794 791 789 787 784 782 781 780 779 776 774 772 770 767 765 764 762 760 759 757 756 754 753 752 751
825 826 827 827 829 828 826 826 827 827 827 822 820 822 821 819 817 814 816 820 818 812 813 811 809 814 808 804 816 821 822 827 830 834 833 831 832 832 832 833 831 831 830 829 829 826 824 822 819 816 813 811 810 808 806 803 801 799 797 795 793 791 789 786 784 782 781 780 779 777 774 772 770 768 766 763 762 760 758 756 755 754 752 750 749 748
827 828 830 829 829 829 825 825 825 825 827 824 822 821 821 819 814 814 815 813 814 811 814 817 816 825 820 807 816 821 819 829 833 833 834 832 832 832 832 832 830 830 830 828 828 825 823 820 818 815 812 811 808 806 804 801 799 797 795 793 791 789 787 785 782 780 779 778 777 775 772 770 767 765 764 761 759 758 756 754 752 751 750 748 747 745
831 831 832 830 829 829 827 826 822 824 829 824 822 824 822 819 814 813 809 807 815 814 814 820 818 828 833 817 818 824 823 830 833 833 835 832 832 833 833 833 832 831 830 829 827 824 822 819 816 813 810 808 806 804 801 798 796 794 792 791 788 786 785 783 781 778 777 776 775 773 771 768 766 764 761 759 757 755 753 751 749 748 747 746 745 743
831 829 830 829 829 830 828 826 822 825 831 827 829 832 826 821 818 815 810 813 826 823 815 820 819 827 834 822 820 829 832 832 831 834 839 837 837 837 837 835 834 833 832 830 828 823 819 816 813 811 808 806 804 802 799 797 795 792 790 788 786 784 783 781 779 777 775 774 772 770 768 767 764 762 760 757 755 753 751 749 747 746 744 743 742 740
830 829 832 830 830 831 830 829 826 828 832 830 834 838 838 840 836 830 828 829 831 824 817 820 823 826 826 819 822 831 833 833 834 838 840 841 840 838 838 836 834 833 831 828 824 820 817 815 813 810 807 804 802 799 797 795 793 790 788 786 783 781 780 779 777 775 773 771 769 767 766 764 763 761 759 756 754 751 749 747 745 744 742 740 739 738
836 831 833 830 829 831 831 832 833 832 835 836 837 842 851 858 860 856 850 842 835 826 819 821 827 829 822 819 824 830 833 835 837 839 841 841 841 839 836 833 831 829 828 826 823 820 818 816 813 810 807 803 800 797 795 792 791 788 785 783 780 779 777 776 774 772 770 768 766 765 763 762 760 759 758 755 753 750 748 746 744 742 740 738 737 735
849 839 834 834 835 834 832 834 836 835 838 839 835 841 851 856 865 868 857 850 847 837 829 827 828 828 824 824 827 830 834 837 838 839 840 838 837 834 831 829 830 830 829 828 825 823 820 817 813 809 805 802 799 795 793 790 788 785 783 780 777 775 773 772 770 768 767 765 763 762 760 759 757 756 756 754 752 749 747 745 743 740 739 736 734 732
858 845 836 837 839 836 834 835 835 836 838 839 835 841 848 849 855 860 852 848 850 848 842 834 825 819 821 825 828 833 836 837 837 837 835 835 833 832 833 834 835 833 831 829 826 824 821 816 813 809 805 801 797 794 791 788 786 783 780 777 774 772 770 768 766 764 763 761 760 759 757 755 753 753 753 751 749 747 745 743 741 739 736 734 732 729
865 851 840 841 838 835 837 837 835 838 838 838 841 843 844 845 850 857 854 846 850 857 846 831 826 824 825 829 830 833 835 833 835 837 836 838 837 837 839 838 837 835 832 830 828 824 820 815 812 808 804 800 796 793 790 786 784 781 777 775 772 769 766 764 762 760 758 757 756 754 753 751 750 750 750 748 746 744 742 741 739 737 734 731 729 726
875 863 849 846 840 836 840 839 835 839 840 841 846 844 840 843 848 856 859 853 857 863 844 828 836 840 837 839 835 834 838 838 839 841 840 841 842 843 843 840 838 836 833 830 827 823 819 815 811 807 803 799 796 793 789 786 783 779 776 773 770 767 764 761 758 756 754 753 752 750 749 748 747 747 746 745 743 741 739 737 735 734 731 729 726 723
879 869 852 845 843 839 839 839 837 838 839 841 843 842 844 853 856 857 861 861 863 864 846 832 837 841 842 845 843 842 844 843 842 843 844 846 846 846 843 840 838 836 833 829 825 822 818 814 811 807 803 800 797 793 790 786 782 778 775 772 769 766 762 759 755 752 751 750 748 747 746 745 744 744 743 741 740 738 735 733 731 729 726 724 722 719
878 874 860 846 845 844 838 839 842 841 841 841 841 842 846 853 858 858 858 860 862 861 853 842 838 840 842 844 847 848 844 842 845 847 849 849 847 845 843 840 838 835 832 828 824 821 817 814 811 808 805 801 797 793 789 786 782 778 775 772 768 764 760 756 753 750 748 747 745 744 743 742 741 740 739 738 736 734 731 728 726 724 721 718 717 715
878 878 867 850 848 850 844 844 846 845 846 847 845 847 851 851 854 858 856 854 859 860 860 857 846 835 834 839 845 845 840 843 849 850 850 848 846 845 843 840 837 834 831 827 823 819 815 814 812 810 807 802 798 793 789 785 781 777 774 771 767 762 758 754 751 749 747 745 743 742 741 739 738 736 735 734 733 730 726 723 721 718 715 713 711 710
882 881 876 868 863 855 846 846 848 846 846 848 847 848 853 856 859 865 860 849 853 858 861 867 858 836 830 837 841 840 842 848 851 850 849 847 845 843 841 839 836 832 830 826 821 817 815 813 811 808 805 801 797 793 788 785 781 776 772 768 764 761 757 754 751 749 746 744 742 739 737 736 735 734 732 730 728 724 720 718 715 713 711 708 706 705
887 885 882 876 867 854 847 848 851 850 845 845 848 848 851 857 859 866 866 853 852 855 852 860 858 840 832 835 837 840 847 851 851 850 849 845 844 842 838 837 834 831 828 823 819 817 814 811 808 805 802 798 795 791 787 784 780 776 772 767 763 759 756 754 751 748 745 742 739 736 735 734 732 731 729 726 722 719 716 713 711 709 707 704 702 700
886 885 880 869 858 849 845 848 850 849 848 848 850 849 852 855 855 858 861 859 861 857 851 856 854 837 830 831 834 842 849 850 849 849 847 844 841 839 837 834 832 829 825 820 818 816 812 808 805 802 798 795 792 789 786 782 778 774 770 765 762 758 754 752 749 746 743 739 736 734 732 731 730 728 726 722 718 714 712 709 707 705 703 701 699 697
883 880 879 875 869 859 851 851 851 848 852 855 853 852 854 856 857 857 857 865 869 857 852 862 854 831 824 829 834 843 848 848 848 846 845 842 838 836 834 832 829 825 821 818 816 812 809 805 801 797 794 791 789 786 783 780 776 771 767 763 760 756 752 749 746 742 739 736 733 731 730 728 726 725 722 718 714 711 708 706 703 701 699 698 696 694
887 882 882 884 886 884 875 871 864 855 857 857 853 854 856 857 861 860 859 868 869 855 856 866 852 829 825 831 836 843 847 846 844 843 841 840 837 835 832 828 825 822 818 815 813 809 806 802 798 794 791 788 786 783 780 776 772 769 765 762 758 755 751 747 743 739 736 733 731 729 727 725 723 721 717 714 711 708 706 703 701 699 697 695 693 691
891 887 887 887 890 891 885 876 866 864 867 862 855 854 855 858 864 863 861 862 861 860 861 856 848 840 837 837 840 845 847 844 842 840 838 836 835 832 829 826 822 819 816 813 810 806 803 799 796 792 789 786 783 781 779 774 770 766 762 759 756 753 749 745 741 738 735 733 730 727 725 724 721 718 714 711 709 706 704 701 699 697 695 693 691 689
891 887 887 889 887 883 879 873 868 870 870 862 856 855 853 858 864 864 861 856 858 865 855 838 843 851 844 840 845 848 847 844 841 838 835 834 832 829 826 822 819 816 812 809 806 802 798 795 792 789 787 785 781 778 776 772 768 764 760 757 753 750 746 743 740 738 735 731 729 726 724 723 720 716 712 709 707 704 702 699 697 695 692 690 688 686
893 890 886 887 884 879 876 873 869 869 865 858 857 855 854 860 864 864 863 859 862 868 854 839 846 851 841 840 847 847 845 843 839 835 833 832 829 826 822 818 815 812 809 805 802 798 795 791 787 785 783 781 778 775 771 768 764 761 758 755 752 748 745 742 739 735 733 730 728 726 723 721 718 714 711 708 704 702 699 697 695 692 690 688 686 684
893 887 885 888 886 879 874 871 868 866 863 857 855 855 857 862 864 864 865 863 864 865 858 851 851 847 841 843 846 843 842 840 836 832 830 829 826 822 818 814 811 808 805 802 798 795 792 789 786 783 781 778 776 772 769 766 762 759 757 753 750 746 744 741 737 734 731 729 727 725 722 719 716 712 709 706 702 700 697 695 693 691 688 686 684 682
891 887 887 891 888 878 870 867 866 866 864 862 858 855 857 862 864 866 867 865 865 864 857 854 853 846 842 844 844 842 839 836 834 832 828 825 823 819 815 811 808 804 801 798 795 792 789 786 784 782 779 777 774 771 768 764 761 758 755 752 748 745 742 739 736 733 731 728 725 723 720 716 713 709 706 703 700 698 696 694 692 689 686 684 681 679
894 893 890 892 891 880 867 865 866 865 864 861 856 853 855 862 868 871 869 866 866 863 856 854 854 848 844 844 843 840 838 836 833 830 826 823 820 817 813 810 806 802 798 794 791 789 786 784 782 781 778 775 772 769 766 762 758 756 753 750 746 743 740 738 735 733 730 726 723 720 717 714 711 707 704 701 699 697 695 693 690 688 684 681 679 677
897 897 892 894 893 877 864 868 873 870 864 856 853 855 860 865 869 871 870 866 863 860 858 856 854 849 845 843 840 836 836 835 831 828 825 821 817 815 812 810 806 801 797 793 790 787 784 782 780 779 777 774 771 768 765 761 757 754 751 748 745 742 739 736 734 731 727 724 721 718 715 712 709 706 703 700 698 695 693 691 688 686 682 679 676 674
898 899 894 894 893 881 873 875 874 870 864 856 855 862 866 869 871 870 868 864 857 855 857 857 852 849 845 842 838 834 832 831 829 827 824 820 816 812 809 807 804 800 796 793 789 786 782 780 779 777 775 773 771 768 765 762 758 754 750 747 744 741 738 735 732 729 725 722 719 716 713 711 708 705 701 698 696 694 691 689 686 683 680 677 674 671
898 898 895 893 893 886 878 880 883 875 860 854 861 867 867 869 870 865 860 858 854 853 855 857 853 849 845 841 838 834 829 826 824 822 821 818 815 811 807 804 801 798 795 790 787 784 781 778 777 775 773 771 769 766 763 760 756 753 749 746 743 740 737 733 730 727 723 720 717 714 711 709 706 703 700 697 695 692 689 686 683 680 677 674 671 668
897 898 896 893 892 886 879 887 893 875 851 851 864 868 866 867 866 863 859 854 853 855 856 856 852 846 843 840 836 832 828 823 820 818 816 814 812 810 807 802 798 795 792 789 785 782 780 778 776 773 771 769 767 764 761 757 754 751 748 745 742 738 735 732 728 725 721 718 715 713 710 707 704 701 698 695 693 690 687 683 680 677 674 671 667 664
897 898 898 897 893 889 887 890 884 865 853 860 869 868 868 867 864 866 864 854 851 855 855 852 848 844 841 838 833 829 825 820 817 814 812 810 808 806 804 801 797 793 790 787 785 781 779 778 776 773 770 767 765 762 758 755 752 749 746 743 740 737 733 730 727 723 720 717 714 711 708 705 702 699 696 693 690 687 684 681 677 674 671 667 663 660
897 898 901 901 893 889 893 892 883 871 864 866 870 867 866 866 863 865 865 856 852 854 852 849 847 843 839 836 832 828 824 820 816 810 807 806 804 801 799 797 795 792 788 785 782 780 778 776 773 771 768 765 763 760 757 754 750 747 744 741 738 735 731 728 725 722 719 715 712 709 706 704 701 697 694 690 687 684 681 678 675 671 668 665 661 656
899 900 901 900 894 893 898 899 896 888 873 866 869 865 864 866 862 860 862 857 851 851 850 848 846 842 839 836 831 827 825 822 815 807 803 803 800 798 795 791 789 789 786 783 780 777 776 774 772 770 767 764 761 758 755 752 749 746 742 739 736 733 730 727 724 721 717 714 711 708 705 702 699 696 692 688 685 682 678 675 672 668 664 662 658 654
900 901 901 899 896 897 900 898 895 890 876 869 869 866 864 863 859 863 870 860 848 849 850 847 845 842 838 835 831 828 828 824 814 806 803 801 798 796 794 790 787 784 782 780 779 776 774 772 769 767 764 762 760 757 754 751 747 744 741 738 735 731 728 726 723 719 716 712 709 706 703 700 697 693 690 686 683 680 676 673 669 665 661 658 655 651
898 900 903 902 898 901 905 899 889 880 872 868 868 866 863 861 863 875 877 860 848 850 850 846 845 841 837 835 831 828 826 821 813 806 802 800 797 794 792 790 788 784 781 779 777 775 773 771 769 766 762 760 758 755 752 749 746 743 740 736 733 730 728 725 721 718 714 711 708 704 701 698 694 691 688 685 681 677 674 670 667 663 659 655 652 650
900 902 903 902 901 899 896 894 889 878 867 865 867 864 863 869 876 877 867 855 853 854 849 846 844 840 836 834 830 825 821 816 811 806 801 798 796 792 790 788 785 783 781 779 776 774 772 769 768 765 762 760 758 755 751 748 745 742 738 735 732 729 726 723 720 716 713 709 706 702 698 695 692 689 686 682 679 675 671 668 665 662 658 655 652 650
904 904 901 900 901 896 891 897 902 887 865 861 867 866 868 876 878 869 860 857 857 853 848 846 842 837 834 830 825 822 817 811 807 804 800 797 794 792 790 787 784 782 780 777 775 774 772 769 766 763 760 759 758 754 751 748 744 741 738 735 732 729 725 722 718 715 711 707 704 700 696 693 690 686 683 680 677 674 670 666 664 661 658 656 653 649
905 905 902 903 905 904 903 905 899 881 866 867 874 874 872 874 873 868 865 860 854 850 849 845 838 835 833 827 822 818 813 808 805 801 798 796 793 791 789 787 785 783 779 777 775 773 772 769 766 762 760 759 757 754 750 747 744 740 737 734 731 728 724 720 717 713 710 706 702 698 695 691 688 685 681 678 675 672 669 666 663 660 657 656 653 650
903 902 902 904 904 903 901 893 881 874 873 876 877 876 874 873 871 870 867 861 855 851 848 843 838 834 830 826 821 816 810 807 804 800 798 795 793 791 790 788 787 784 780 778 776 773 771 769 764 761 760 759 757 753 750 747 744 740 737 734 730 727 723 719 716 712 708 704 700 697 693 690 687 684 681 678 675 672 669 666 662 659 657 655 653 651
902 902 902 901 898 894 889 882 878 878 877 876 876 875 874 872 870 869 866 862 858 852 847 844 839 833 829 825 820 815 811 807 803 800 798 796 794 793 792 789 787 784 781 779 776 773 771 768 764 762 761 759 756 753 750 747 744 741 737 734 730 726 723 719 715 711 707 703 699 695 692 688 685 682 679 677 675 672 669 666 663 659 656 654 652 650
903 904 903 900 899 898 891 881 879 880 878 876 876 873 871 871 869 868 866 861 857 853 848 844 840 834 830 826 821 817 812 807 804 802 799 798 797 796 794 790 787 785 783 781 777 773 770 767 764 763 761 758 755 752 749 747 744 741 738 734 730 726 722 718 714 710 706 702 698 694 690 686 683 680 677 675 673 671 668 665 663 660 656 653 651 649
905 904 903 902 902 901 893 882 880 881 879 878 877 873 872 871 867 866 865 861 857 853 848 844 841 838 833 828 824 820 814 810 809 806 803 802 801 799 796 792 789 787 785 782 778 774 771 769 767 764 762 758 754 751 749 746 743 740 737 733 730 726 722 718 714 710 705 702 698 693 690 686 683 679 677 674 672 670 667 665 662 659 656 653 651 649
906 904 904 905 903 899 892 884 883 881 877 875 877 876 874 871 867 865 863 860 856 852 847 844 843 841 837 832 828 823 818 815 814 811 808 807 804 800 797 794 792 790 786 782 779 776 775 772 769 765 762 758 755 752 748 745 742 739 736 733 729 726 722 717 714 709 705 701 697 693 690 686 683 680 677 674 672 670 667 665 663 659 656 652 650 649
909 906 907 908 908 904 896 890 890 888 881 876 876 875 873 871 869 865 861 858 856 853 849 846 842 840 839 836 832 828 823 820 819 817 814 810 807 803 801 798 795 792 787 783 781 779 778 775 770 766 763 759 755 752 749 745 742 739 736 733 729 725 722 718 713 709 705 701 697 693 690 686 683 680 677 674 671 669 666 664 662 660 656 652 648 647
912 909 909 911 911 905 898 894 894 894 888 881 877 876 874 871 868 866 862 860 857 855 853 850 845 840 838 837 836 834 829 825 823 820 816 813 810 807 804 801 797 792 788 786 784 781 778 774 770 767 763 759 756 753 749 745 742 738 735 732 729 725 722 718 713 709 705 701 698 694 690 687 683 679 676 674 671 668 665 661 658 657 655 652 648 645
Wind_Speed
4 5 5 3 3 6 6 1 2 2 3 4 5 4 5 6 5 7 10 10 6 5 6 8 10 11 12 10 9 9 8 7 5 6 6 5 5 5 5 5 5 5 6 12 16 18 22 25 26 26 27 30 30 30 33 36 35 32 31 32 31 30 28 27 28 29 28 25 23 23 22 22 22 21 21 20 17 17 20 26 30 33 35 33 32 32
5 7 3 4 5 6 6 1 2 6 6 5 4 3 4 5 8 10 11 9 6 5 8 11 12 9 12 12 6 9 7 5 5 6 6 7 6 5 6 6 6 5 6 10 12 16 20 22 23 24 25 28 29 32 34 34 34 33 32 33 33 30 28 28 28 28 29 27 27 25 22 19 19 19 20 20 19 18 17 21 27 32 33 31 30 29
6 4 5 7 4 4 4 4 6 8 6 5 3 2 3 5 9 10 7 3 5 4 9 13 11 8 10 8 2 7 5 4 5 7 7 8 7 5 6 6 7 6 6 7 7 12 17 20 23 24 25 28 29 30 30 30 31 31 31 33 32 31 30 28 25 23 25 26 26 23 21 20 21 20 19 19 20 20 19 19 24 28 30 30 28 27
3 3 6 3 3 6 6 5 7 6 5 4 2 2 5 5 4 6 7 6 5 4 8 13 10 5 4 5 7 6 6 7 8 9 8 7 7 6 6 6 6 7 7 7 6 9 16 19 21 23 25 27 27 26 26 27 28 28 29 31 31 31 29 24 22 23 25 26 25 24 24 25 25 25 23 21 21 21 22 22 22 25 29 30 29 28
1 7 3 4 6 7 5 5 6 5 5 4 2 1 6 9 5 7 11 12 10 5 5 6 8 4 1 4 5 5 7 8 7 9 9 7 7 7 7 6 7 7 8 8 6 8 14 16 19 22 26 26 24 23 23 25 26 26 27 29 29 29 28 25 25 27 26 25 26 26 27 27 27 26 25 24 24 24 24 23 23 24 28 29 29 30
2 6 2 6 6 7 5 4 2 3 4 5 4 4 7 10 10 13 13 10 8 6 2 5 5 5 0 5 4 3 6 6 6 8 8 7 7 7 7 7 7 8 9 9 8 10 13 14 20 25 27 25 21 21 23 25 26 26 27 25 24 26 27 28 28 27 27 26 26 25 24 22 22 22 22 23 24 26 26 26 25 25 26 27 28 29
2 3 5 5 4 6 5 4 2 4 5 4 5 6 8 8 11 16 15 7 4 6 4 6 3 4 2 3 4 4 7 6 6 8 8 7 6 6 6 8 9 9 10 10 11 14 15 17 23 27 27 25 22 24 27 27 27 28 26 22 22 26 27 27 28 29 28 25 24 24 21 20 20 20 21 23 25 26 27 27 27 25 24 26 28 28
1 5 7 6 5 6 5 4 3 3 5 4 7 7 9 11 13 15 12 5 3 5 5 5 3 4 4 1 3 7 8 6 6 8 7 6 6 7 8 10 11 10 10 10 11 14 17 21 25 27 26 25 23 26 27 26 28 27 22 21 25 28 28 28 28 28 27 23 23 23 22 22 23 22 23 25 25 26 27 27 28 27 26 26 28 29
0 2 2 3 5 4 3 5 5 2 3 6 8 7 9 10 12 13 9 5 4 2 3 6 6 4 7 4 3 6 7 4 5 6 5 6 8 9 11 12 11 10 10 10 11 13 18 23 27 27 25 24 24 25 25 26 26 22 19 24 28 28 28 27 27 27 24 20 20 22 23 24 25 25 25 25 25 26 26 27 27 28 28 28 29 30
1 1 4 4 3 1 4 7 4 5 3 7 7 8 8 8 9 8 5 4 3 1 3 6 9 4 8 5 3 4 3 3 2 3 3 8 11 11 13 13 12 9 9 10 12 16 21 25 27 25 25 28 28 26 26 25 20 17 21 26 28 28 28 26 27 28 23 17 19 22 24 25 26 27 26 25 26 26 25 25 26 27 28 29 30 30
3 2 2 3 1 3 3 6 3 7 5 6 7 8 8 6 5 4 2 1 4 1 3 4 9 4 6 3 1 1 1 3 2 3 6 13 15 13 13 12 11 10 10 11 13 19 25 27 26 27 30 32 32 31 30 22 15 18 23 25 25 27 26 25 27 24 19 18 21 23 24 26 27 28 27 25 25 26 25 25 25 26 27 28 30 30
6 3 1 2 1 1 2 5 5 6 6 6 5 6 8 6 3 3 3 4 4 3 3 5 8 6 4 2 1 0 2 3 4 5 9 14 13 11 11 11 10 9 10 11 12 16 22 24 26 30 33 32 32 34 29 19 19 24 24 23 24 23 23 25 24 20 19 21 22 21 23 26 27 28 28 27 26 26 26 25 25 26 26 28 29 30
5 2 3 4 2 2 3 4 6 6 7 7 5 6 8 6 5 4 4 4 3 5 3 7 9 6 3 2 0 2 4 3 5 5 9 12 11 11 10 10 9 9 11 13 14 15 17 19 25 30 31 29 30 30 24 20 24 26 24 24 22 19 21 24 22 20 21 20 18 20 23 25 26 27 28 28 28 28 27 26 26 25 26 26 27 28
5 5 5 5 3 2 4 3 5 4 4 5 4 5 5 3 4 5 4 3 5 6 5 9 9 4 3 2 2 4 3 3 5 8 9 10 10 10 11 12 13 15 16 15 15 15 15 20 28 30 28 27 28 27 23 24 26 26 25 24 19 18 23 24 21 20 19 17 18 20 22 23 25 26 27 28 28 27 27 27 27 27 26 25 25 26
3 4 3 3 3 3 3 1 1 1 2 2 2 4 2 1 2 4 4 2 6 8 8 9 5 3 4 3 3 4 4 4 7 10 10 11 12 13 15 17 18 18 16 14 14 16 19 27 31 30 27 27 28 27 26 27 28 28 27 23 19 21 24 23 20 19 18 17 18 19 19 22 25 27 28 29 28 27 28 29 29 29 27 26 27 28
1 4 6 4 4 4 3 2 1 3 2 2 2 4 2 2 3 3 5 5 6 8 6 4 3 1 3 3 5 6 5 6 9 13 15 17 17 17 18 17 16 15 14 14 15 17 24 31 32 28 28 28 28 28 28 29 31 31 29 24 22 25 25 23 20 18 17 17 18 19 21 24 27 28 30 31 31 29 29 30 30 31 31 29 30 31
2 5 9 10 8 4 1 2 1 3 1 2 3 3 4 4 5 1 5 4 3 5 4 1 2 4 5 2 3 6 10 13 15 16 17 18 19 18 16 15 15 15 15 15 16 18 24 29 30 29 30 29 28 29 31 32 33 33 29 26 27 29 28 24 21 19 19 18 19 21 23 26 28 29 31 33 32 31 31 33 34 35 34 32 31 31
0 5 9 6 5 5 1 1 3 2 2 2 2 3 4 1 3 1 3 4 3 4 5 2 4 6 5 3 4 12 16 16 16 15 16 17 17 16 15 15 16 16 16 17 18 20 24 27 29 32 32 31 31 33 33 33 35 34 30 28 32 33 31 27 23 22 21 19 20 22 24 27 28 29 32 33 32 32 34 37 38 38 37 35 33 32
1 4 7 3 3 7 4 4 4 4 3 3 0 1 1 1 2 1 1 5 6 6 7 8 9 5 2 2 7 12 13 13 14 15 16 16 16 15 16 17 18 17 16 16 17 17 20 26 30 32 34 34 36 36 35 36 37 33 31 33 37 38 36 33 28 25 21 19 21 23 25 26 27 30 32 32 32 33 37 40 42 42 40 38 35 33
1 1 6 4 5 8 5 3 3 5 4 3 2 3 3 1 3 1 1 2 5 7 7 11 11 3 2 1 6 10 12 13 15 15 14 14 15 16 15 16 17 16 15 15 16 15 18 26 30 33 36 38 39 39 38 38 38 36 36 39 41 42 41 36 30 25 21 21 23 24 25 26 28 30 31 31 34 39 44 46 45 43 40 37 34 33
2 0 5 6 7 7 4 2 2 3 3 4 5 4 3 1 1 2 2 2 2 4 5 8 10 4 2 3 5 12 15 15 14 14 13 14 16 17 16 16 17 16 15 16 16 15 18 26 31 35 38 38 39 40 39 39 39 39 40 40 39 39 37 34 30 25 21 21 22 24 27 28 29 29 30 34 41 47 49 47 43 40 37 34 33 32
2 0 4 5 5 5 4 4 3 3 3 2 4 3 2 1 0 2 5 3 1 2 2 4 9 8 2 2 6 13 14 12 12 14 14 15 18 18 17 17 17 16 16 17 15 14 19 26 30 32 35 36 37 37 36 37 38 39 41 40 38 35 33 32 29 26 24 25 27 29 30 29 28 30 35 43 48 49 45 42 38 34 33 32 32 32
1 1 3 5 5 7 8 5 2 0 1 0 1 1 2 2 2 2 6 6 4 4 3 4 7 7 2 2 9 12 10 9 11 12 14 15 16 17 17 18 18 17 18 17 14 16 22 26 27 29 32 34 34 33 34 34 35 39 40 37 34 33 33 33 31 30 30 32 34 33 30 29 31 35 42 47 47 43 38 35 33 32 32 32 31 31
0 1 3 6 5 5 6 4 2 2 4 3 2 1 0 2 3 4 5 3 4 7 6 5 8 6 2 3 11 11 8 9 10 11 14 15 14 15 17 18 17 17 18 15 14 18 24 25 25 28 30 31 31 31 33 33 35 38 36 33 33 34 36 36 35 36 36 35 32 30 30 33 36 40 43 44 41 37 34 32 33 33 31 28 27 27
1 1 3 6 7 7 6 5 6 4 3 4 5 2 1 2 3 4 3 1 1 5 5 6 10 8 3 8 13 9 8 10 11 12 13 14 14 15 16 16 16 17 16 15 16 18 20 20 23 27 29 30 30 30 33 36 39 37 33 34 35 35 37 39 39 38 35 31 30 32 35 36 37 39 40 38 36 33 32 32 31 29 26 24 25 27
0 1 1 2 3 7 8 7 9 9 7 5 5 4 2 4 4 3 2 1 2 5 4 5 11 12 11 15 16 11 10 13 14 14 13 12 13 15 16 16 16 16 15 17 18 17 16 18 22 28 30 30 32 34 37 38 37 36 35 34 33 34 37 38 36 33 31 34 37 37 34 33 35 37 36 33 30 29 28 28 27 27 26 25 26 27
2 1 1 2 3 5 8 10 11 11 9 10 10 10 9 4 5 1 1 3 4 6 6 7 10 14 16 18 15 11 12 15 15 15 14 12 13 15 16 16 16 15 15 16 17 16 16 17 21 28 30 29 32 37 40 39 37 36 36 35 35 37 37 33 32 34 37 39 38 33 28 29 33 34 30 27 26 26 27 27 27 28 28 28 28 27
3 2 2 1 5 8 11 14 14 11 10 12 14 15 12 4 3 3 3 6 7 7 10 13 13 16 19 16 11 10 11 13 15 16 14 12 14 16 16 17 17 16 16 17 17 17 18 19 19 23 27 29 33 38 40 40 40 38 35 36 39 35 30 30 35 38 37 33 28 27 29 32 34 32 27 27 29 29 29 29 28 28 29 29 27 24
4 2 4 4 9 13 12 13 13 10 10 12 14 14 9 0 3 3 6 6 6 6 13 19 20 21 20 14 10 11 12 13 16 17 14 13 15 17 19 18 17 17 18 19 19 19 19 20 18 19 24 29 35 40 41 40 38 36 36 40 38 29 26 32 35 32 29 26 27 30 32 33 33 31 28 30 31 30 28 26 27 29 28 26 23 23
3 3 4 4 9 12 12 11 11 10 11 14 16 12 3 3 3 4 4 5 5 8 13 19 22 21 15 10 10 12 12 13 15 15 14 15 17 19 20 19 18 20 19 19 20 20 19 19 18 19 25 30 33 39 42 41 38 36 38 40 34 28 30 33 29 25 25 28 30 30 31 31 31 30 30 31 29 26 24 25 27 28 26 25 27 30
2 2 4 3 6 10 10 10 8 9 13 16 15 9 3 1 3 4 4 4 5 9 15 18 19 17 9 7 11 12 13 15 16 16 16 16 17 20 20 19 20 21 21 20 21 20 20 19 16 17 24 30 33 36 38 39 38 37 38 36 31 30 31 29 25 25 27 29 30 30 29 30 30 29 28 27 25 23 24 26 28 28 29 31 33 34
3 3 3 4 5 9 9 9 12 14 15 13 10 8 7 6 3 2 4 5 7 13 18 18 14 11 8 9 12 14 15 17 18 17 16 16 18 20 18 18 20 21 22 22 21 20 21 17 13 15 23 31 34 36 37 37 37 36 35 34 32 32 31 27 27 29 30 29 29 28 28 28 28 28 27 26 25 24 25 27 29 31 32 33 33 32
2 3 4 4 4 9 11 11 13 13 10 8 5 4 4 5 4 3 5 7 10 12 14 13 11 10 11 13 16 17 17 18 17 15 15 16 18 18 16 17 20 21 21 21 21 21 21 16 12 18 27 31 33 36 40 40 37 35 34 33 32 33 31 29 30 30 30 28 27 27 27 27 27 28 27 27 25 24 25 28 30 31 31 30 30 30
2 2 3 1 1 8 14 13 10 7 7 7 2 3 2 3 6 9 9 11 14 12 9 9 10 12 15 16 18 20 19 17 16 14 14 15 14 14 16 17 19 20 20 21 20 21 21 17 16 23 30 33 33 36 39 39 36 34 34 33 33 32 31 30 30 29 28 27 26 27 26 26 27 28 27 27 26 26 27 28 29 28 27 27 27 26
3 3 3 2 1 5 8 8 8 8 8 5 2 5 2 0 5 13 16 15 16 13 9 9 10 14 17 16 17 19 19 18 18 16 15 14 12 13 17 18 18 20 21 21 20 21 23 23 23 27 31 33 33 34 37 37 34 33 33 33 32 31 31 30 29 28 27 26 26 27 26 27 28 28 27 27 27 28 28 28 28 27 27 26 26 26
2 3 2 2 2 3 6 7 7 11 11 4 3 2 1 2 7 14 16 13 10 7 6 8 12 15 17 18 18 18 18 19 17 15 13 12 12 14 16 17 19 21 21 21 22 24 26 26 26 29 32 33 32 34 37 37 33 32 32 32 31 31 30 29 28 27 26 26 26 27 27 27 27 27 27 28 28 29 28 28 28 28 27 27 27 26
1 1 2 2 1 1 5 7 7 11 11 4 3 2 2 5 9 11 13 11 4 1 6 11 16 18 19 20 19 18 19 18 14 12 11 13 15 17 18 19 22 25 25 26 29 29 29 28 28 31 34 34 32 34 37 36 33 32 31 30 30 30 29 28 27 26 27 27 27 28 27 26 26 27 28 28 28 28 27 27 28 29 28 27 26 26
2 1 1 1 2 1 4 7 7 10 9 2 1 4 3 5 9 10 12 9 1 2 11 16 18 21 21 20 20 20 18 15 13 11 12 15 18 20 20 23 27 30 30 31 32 30 28 29 31 33 35 32 30 33 37 35 32 31 30 29 29 29 28 27 27 27 28 28 28 28 26 25 26 27 28 28 27 28 28 28 29 29 27 25 25 26
3 1 3 1 3 3 3 6 6 7 7 3 5 9 7 7 11 11 11 7 4 9 17 18 19 21 19 19 20 18 14 13 13 12 15 19 21 20 20 23 28 31 32 32 32 29 28 31 32 34 33 28 26 33 37 35 32 30 29 29 29 28 26 26 28 29 29 29 28 27 26 26 27 27 27 27 28 28 29 29 29 28 27 25 25 26
4 4 3 1 4 4 4 5 4 4 5 4 5 10 11 10 11 11 10 9 11 15 17 17 19 20 18 18 18 14 12 14 14 15 20 23 23 24 26 26 27 31 33 32 31 30 30 32 33 32 28 24 26 32 35 34 31 29 28 29 28 26 25 28 30 30 29 28 27 27 27 28 28 27 27 28 29 30 30 30 29 28 28 28 27 26
3 2 1 1 4 5 4 5 5 5 5 4 6 11 11 11 11 10 9 11 14 17 17 17 19 19 17 17 15 11 13 16 18 20 23 23 23 26 31 32 32 33 33 32 32 31 29 30 34 34 28 22 27 33 35 33 30 27 28 28 26 26 27 30 31 29 28 29 29 29 29 27 27 28 29 29 30 32 33 32 29 28 29 28 26 24
3 2 2 1 3 3 3 5 7 6 3 6 13 13 10 10 11 9 10 12 15 17 18 17 18 18 17 16 15 15 16 19 21 23 23 22 23 25 28 33 33 31 31 34 34 32 31 31 35 36 28 21 28 35 35 32 28 26 27 27 26 28 30 31 30 28 29 30 30 29 29 28 28 30 29 29 30 31 33 30 26 26 26 24 23 23
2 3 3 3 2 3 5 4 5 6 7 13 17 12 8 8 9 9 12 14 15 16 17 16 16 17 16 17 18 19 20 22 23 23 23 22 23 24 27 30 29 29 34 36 32 32 34 33 35 34 25 21 31 37 34 30 27 26 27 27 27 30 31 30 29 29 30 31 30 30 30 30 31 30 29 29 30 28 27 26 25 24 22 20 21 22
1 1 2 3 1 2 4 3 4 8 12 14 14 10 9 9 8 9 12 14 15 15 14 14 16 17 18 19 20 21 22 22 23 23 23 22 21 22 25 26 28 33 36 33 31 35 36 34 34 31 22 23 34 37 32 28 27 26 27 28 29 31 31 30 31 31 31 30 30 31 31 30 30 30 28 28 28 25 24 24 25 23 20 19 19 19
2 3 3 3 2 1 4 8 9 10 10 10 10 10 10 10 9 11 13 14 14 14 13 13 16 19 20 21 23 23 22 22 23 22 21 21 20 20 22 26 31 36 33 30 34 39 37 34 33 27 21 27 36 35 30 27 26 26 27 29 30 31 30 31 33 32 31 31 31 31 31 30 29 28 26 26 25 24 23 24 23 22 20 20 19 17
3 2 1 2 4 5 6 8 10 11 12 14 12 9 10 11 12 13 14 13 13 14 15 15 17 19 21 22 23 22 21 22 23 21 20 20 20 23 27 28 31 33 31 32 38 38 34 33 30 23 24 33 36 31 28 27 26 26 28 30 31 30 30 32 33 31 31 31 31 31 31 30 28 26 25 24 23 22 22 23 22 21 22 22 19 16
2 1 1 1 6 8 7 8 11 14 15 16 13 11 13 15 14 13 13 13 14 16 17 18 18 20 23 24 24 24 23 23 22 20 19 17 18 25 30 28 27 30 33 36 38 35 31 29 27 26 30 34 32 29 28 28 27 28 29 30 31 31 31 32 31 31 31 31 31 31 30 29 28 27 26 26 25 24 23 23 23 22 22 21 19 17
1 1 1 3 6 8 11 14 15 16 16 14 12 12 14 15 16 16 15 16 19 20 21 22 22 21 22 24 24 25 25 24 23 22 21 18 17 22 26 26 28 33 36 37 35 32 30 30 29 30 32 31 29 30 29 28 29 30 30 31 31 31 32 32 31 31 31 30 30 29 29 28 28 27 27 27 26 25 24 24 25 24 22 22 21 20
1 2 3 5 7 8 11 14 16 17 16 14 13 14 14 15 16 17 17 18 20 20 21 24 26 26 25 25 25 26 25 25 25 26 25 20 18 21 25 28 32 35 35 34 31 31 32 31 30 31 31 29 28 29 30 31 31 31 31 31 32 32 32 31 31 31 30 29 29 29 28 28 28 27 27 26 26 26 25 24 23 23 24 25 24 21
4 5 5 6 8 9 11 13 15 14 14 13 16 18 17 16 16 17 18 19 18 19 20 22 25 29 30 30 31 28 23 23 27 30 25 20 21 26 30 32 33 33 33 31 31 33 35 32 30 30 30 28 27 28 30 32 32 31 31 32 32 32 32 32 31 29 29 29 28 28 28 28 28 28 27 25 25 26 26 25 22 19 20 24 24 23
4 5 6 6 7 10 12 14 12 10 11 14 17 17 17 17 17 17 19 19 19 21 22 20 21 25 27 31 35 32 25 25 31 31 24 21 26 32 33 33 32 30 30 31 32 34 35 32 30 31 30 29 29 30 32 32 31 32 32 32 33 33 33 32 30 27 27 28 29 29 29 28 27 28 27 26 25 25 24 25 25 22 19 20 22 24
Wind_Direction
54 63 51 21 315 302 302 285 151 267 276 286 291 271 271 283 285 280 282 294 346 344 280 274 284 287 291 270 207 193 186 177 169 135 123 111 90 80 77 68 59 49 27 20 20 20 15 7 2 357 353 350 345 342 340 336 331 329 333 329 320 317 319 321 323 321 313 304 299 293 289 294 300 295 285 280 285 298 304 304 305 308 309 309 312 313
55 67 16 294 279 292 304 295 53 1 350 352 336 302 308 304 295 285 278 297 6 4 292 286 294 291 289 284 215 169 166 170 152 122 102 83 75 62 60 53 42 32 20 19 18 17 9 1 358 355 353 352 347 343 341 340 338 336 336 332 323 320 321 321 322 323 320 313 306 299 294 303 310 303 290 282 283 287 291 300 304 307 309 307 309 317
40 46 295 280 288 336 356 47 46 13 356 358 354 348 338 315 307 291 258 293 16 352 297 295 300 292 294 309 100 127 121 103 91 97 93 81 71 52 53 51 34 21 5 1 7 9 360 353 354 354 353 352 347 343 343 345 345 342 339 335 330 327 326 324 326 330 330 326 321 315 314 318 318 314 305 293 289 286 279 289 301 303 305 306 306 311
48 286 278 298 43 38 9 22 47 26 3 358 352 6 321 306 326 302 286 319 328 264 269 294 304 296 311 28 65 74 83 84 80 84 82 80 72 51 57 62 32 15 358 348 352 354 348 349 355 355 352 347 343 342 343 345 344 340 337 335 332 331 329 328 330 332 330 328 325 321 319 320 318 316 314 305 296 290 281 280 289 297 301 302 300 301
185 251 274 39 51 54 14 356 50 51 357 321 276 330 310 306 301 280 294 318 320 274 245 308 321 306 340 86 83 67 81 87 83 82 73 62 62 49 44 38 16 8 359 347 339 335 341 352 357 352 345 341 340 341 342 341 338 335 333 333 334 336 336 334 332 331 329 328 326 322 320 320 318 314 311 309 303 297 291 282 278 287 295 295 295 297
259 263 19 48 32 38 27 339 27 86 6 325 266 258 289 304 302 294 304 327 335 311 334 34 349 293 351 113 132 105 88 87 81 78 69 51 45 42 30 15 4 2 356 345 336 333 340 351 349 343 339 337 338 340 340 337 335 332 330 332 336 339 338 334 332 333 331 332 330 324 322 320 317 311 307 305 302 298 294 289 285 286 288 288 288 291
295 332 42 70 51 26 18 330 323 102 47 337 268 274 291 307 307 302 310 330 330 295 323 46 28 281 352 102 162 131 100 99 87 68 58 51 41 36 26 13 4 357 354 351 348 345 345 344 340 336 335 337 338 340 339 336 334 329 327 333 338 337 335 331 329 328 327 329 326 319 320 323 318 310 306 305 305 303 300 297 293 289 285 285 283 283
281 360 20 47 49 24 12 334 309 83 63 300 279 309 316 313 304 297 306 312 269 286 331 24 25 297 314 19 148 112 97 102 93 67 50 48 41 32 24 11 2 357 357 357 353 348 342 337 334 332 333 336 336 336 335 332 329 325 326 336 339 337 334 330 329 327 324 322 316 315 322 324 318 312 307 308 309 307 305 302 298 293 287 284 284 281
309 9 356 48 41 24 359 300 280 59 61 273 287 322 311 300 293 291 301 292 280 325 332 347 18 333 301 332 74 95 95 107 86 63 50 38 30 24 14 2 358 0 0 354 346 339 335 334 331 330 333 333 329 328 327 326 324 323 330 336 334 332 329 326 326 326 325 320 314 320 325 320 315 312 307 306 307 306 305 303 300 298 292 286 284 281
317 242 201 123 74 336 287 280 284 59 16 282 310 330 306 288 281 287 286 276 322 23 257 337 26 360 298 324 64 75 81 125 79 51 50 27 19 14 5 357 355 355 353 347 340 335 332 331 330 332 335 332 326 321 321 323 323 324 330 332 329 327 325 323 322 320 320 322 324 326 326 320 315 311 306 304 304 304 304 301 299 298 296 291 285 280
295 299 196 129 146 222 268 288 338 57 19 328 352 340 317 298 281 295 287 316 19 296 228 19 24 334 299 318 105 61 164 157 107 41 19 11 8 6 358 352 350 350 347 341 335 331 330 333 337 340 337 332 328 323 320 322 327 330 330 329 326 324 323 323 324 323 322 329 334 334 331 326 319 312 305 301 301 301 300 298 298 298 296 292 287 281
333 350 289 281 263 137 21 328 344 31 25 18 13 339 333 329 329 355 357 27 25 284 262 28 360 317 283 278 304 231 193 142 99 62 19 4 356 354 351 348 347 345 339 331 329 331 334 339 343 341 334 331 329 325 321 325 331 330 328 324 320 320 323 325 324 323 326 333 338 339 337 332 326 319 309 300 299 300 299 296 296 297 296 293 288 283
328 294 286 312 323 70 42 347 339 5 19 22 15 1 359 348 348 350 341 358 320 266 304 352 341 317 249 238 181 185 190 149 102 60 15 355 347 347 347 345 345 343 338 336 338 338 341 342 340 335 329 326 327 322 319 325 327 325 322 317 314 314 321 323 319 317 324 331 336 339 338 334 330 325 317 310 307 304 301 299 297 296 295 293 289 286
323 312 331 350 341 30 63 23 336 340 7 17 27 33 15 347 340 319 303 319 283 273 315 331 328 302 276 312 155 181 171 112 51 22 2 351 351 347 347 351 351 349 345 341 341 340 340 336 332 328 323 322 323 319 316 320 321 318 315 312 309 311 320 320 312 312 317 320 327 335 336 334 333 329 322 317 314 312 310 309 307 304 299 293 291 291
345 314 317 11 333 333 33 74 272 336 16 9 108 104 60 290 271 270 260 280 291 295 313 321 310 268 310 347 101 101 71 45 10 358 356 358 0 358 357 357 352 345 340 338 339 337 333 331 327 323 320 321 322 319 317 317 318 316 311 308 306 310 316 315 306 305 308 312 323 331 333 335 336 331 323 317 315 315 316 315 311 307 303 298 295 295
15 268 275 327 319 313 334 275 163 80 28 297 116 82 16 239 199 236 245 240 282 298 298 295 259 224 348 9 94 78 38 11 359 358 4 5 5 3 357 349 343 337 337 339 338 334 330 327 324 321 320 320 322 321 318 316 318 316 309 306 308 310 312 307 299 297 300 308 320 325 328 332 333 329 323 316 312 313 315 315 313 307 303 298 295 294
16 281 297 327 331 326 305 278 17 71 344 319 34 357 284 200 156 238 278 264 301 301 283 253 271 311 338 347 74 29 2 1 3 3 7 6 2 358 347 340 339 338 338 338 334 329 327 325 323 323 320 319 321 322 319 317 319 317 309 308 311 311 309 301 294 292 292 301 313 319 325 329 329 325 320 314 310 309 311 312 311 308 303 296 292 292
275 288 295 310 320 311 283 80 21 58 98 56 12 278 269 100 108 110 298 302 314 285 274 287 300 309 315 292 358 6 360 356 357 2 6 2 357 348 339 340 340 337 334 332 330 328 326 326 325 324 321 321 324 325 322 321 322 317 312 314 318 316 310 301 293 287 287 298 312 319 324 326 324 320 316 311 308 307 309 309 308 306 302 294 289 289
353 306 293 269 303 315 351 53 351 329 63 80 258 230 101 20 307 348 326 298 298 293 291 300 305 307 267 274 352 358 350 348 356 6 3 354 349 342 339 341 338 335 332 329 331 330 327 327 326 326 328 330 332 331 329 328 326 322 321 324 325 321 312 302 291 285 288 303 316 319 321 320 319 317 313 310 307 308 308 307 306 304 299 292 286 285
3 321 283 296 345 335 345 30 332 312 338 6 6 26 63 163 232 258 257 260 286 292 296 307 310 308 153 19 1 347 344 359 5 3 356 346 344 343 341 341 336 332 332 331 331 328 328 331 333 337 338 336 335 333 331 330 328 327 328 328 325 320 313 303 293 289 295 308 315 317 317 316 315 314 311 309 308 307 305 303 302 300 296 290 284 282
350 189 270 302 343 347 337 324 303 280 296 341 357 345 329 289 239 273 248 196 238 279 296 308 302 295 89 59 11 351 356 11 7 353 347 343 344 342 340 338 333 331 332 331 327 326 334 339 341 341 337 334 333 330 330 329 328 327 327 324 322 321 317 310 303 301 305 313 317 317 316 315 314 313 312 311 308 305 302 300 298 295 293 289 284 281
353 233 264 296 325 322 290 250 233 219 215 305 331 301 229 203 52 308 289 271 210 221 222 265 285 299 351 82 12 3 6 11 1 349 344 342 342 340 338 336 332 332 331 326 323 331 341 341 338 335 332 332 330 328 327 327 326 326 324 322 322 324 324 322 318 316 316 318 319 317 315 314 314 314 314 311 308 304 301 297 294 293 293 292 289 284
194 185 265 276 268 268 271 266 269 128 132 295 289 215 175 151 134 247 283 292 294 281 247 225 275 292 178 103 10 14 15 4 356 348 341 340 340 337 335 334 333 331 326 321 326 338 338 334 331 329 330 330 329 327 326 326 327 327 325 325 328 329 328 327 323 319 317 316 314 313 314 314 315 315 314 310 306 303 299 294 292 293 293 294 296 293
277 74 309 294 278 271 277 289 335 48 54 9 301 266 191 163 175 217 242 287 303 288 293 289 288 284 165 26 7 18 15 355 349 347 342 337 336 336 333 333 332 328 323 322 332 336 330 327 327 328 328 329 330 330 328 326 326 324 322 324 326 325 322 319 316 313 311 309 310 313 313 314 314 313 310 306 302 300 297 295 294 293 291 294 301 303
316 321 337 326 323 326 325 323 325 335 359 327 292 302 31 180 235 259 256 36 237 251 279 298 292 291 317 350 353 6 2 347 343 345 342 335 334 334 331 330 328 324 324 329 333 330 325 325 326 327 328 329 329 330 330 328 323 319 319 319 319 319 318 316 312 309 308 310 314 315 313 312 313 312 307 302 299 298 297 297 295 293 292 297 303 306
75 229 21 20 321 320 320 315 318 321 325 312 287 300 311 213 219 267 286 263 240 266 285 279 283 297 319 333 340 352 352 342 340 341 339 336 335 330 327 328 326 324 327 330 328 325 323 324 324 325 329 332 332 331 329 327 324 323 321 320 321 321 317 314 311 312 318 321 317 312 312 314 314 309 304 300 300 301 303 304 304 303 301 302 305 304
82 273 134 135 200 261 280 284 298 309 309 304 303 313 313 251 189 140 298 271 292 306 291 263 277 300 315 326 335 347 346 338 335 336 337 338 333 327 325 323 320 323 326 325 324 322 322 323 324 328 331 333 334 333 329 325 323 323 321 319 321 319 315 316 322 326 323 316 312 312 316 320 315 308 304 307 311 313 313 312 311 309 307 306 304 302
67 330 271 296 283 273 275 282 292 299 292 295 305 313 314 293 149 139 260 289 324 324 300 301 312 312 313 323 336 340 338 333 329 332 335 333 327 322 320 317 317 322 324 323 324 324 325 325 327 333 333 331 332 333 332 327 323 321 322 322 321 319 323 329 329 323 316 311 315 322 322 320 315 310 312 317 318 314 311 309 310 310 308 305 302 301
104 262 250 298 299 285 283 286 291 295 292 296 305 309 310 275 147 205 248 288 330 310 295 309 318 312 312 326 340 335 332 328 327 330 329 324 321 320 319 317 318 321 323 324 325 327 328 326 329 335 334 331 332 332 332 329 325 324 327 326 323 323 330 329 321 316 317 323 328 325 320 317 314 311 313 315 313 309 307 311 314 313 309 305 305 308
121 259 272 296 292 287 291 288 288 301 306 305 307 309 321 141 198 247 251 276 293 275 283 302 308 307 313 333 334 327 326 326 327 325 321 320 321 320 319 318 319 322 324 324 326 328 328 326 329 335 333 332 334 334 334 330 326 327 328 326 324 325 327 325 321 323 329 329 325 320 317 314 310 308 308 306 306 308 314 319 318 315 313 313 313 313
70 292 295 327 306 300 300 293 294 307 305 303 304 305 315 321 301 313 315 304 296 289 294 304 304 303 319 338 323 319 323 326 326 320 318 320 322 321 320 319 321 324 324 324 326 328 327 326 330 333 333 333 333 334 335 330 326 327 327 325 324 325 326 327 328 330 328 324 320 317 314 312 309 307 306 306 309 316 322 321 317 314 313 312 311 309
34 314 313 12 335 302 304 315 318 314 305 300 301 299 307 321 330 321 302 300 306 308 309 311 307 307 323 326 315 316 323 325 322 318 319 320 319 319 317 318 322 322 322 324 326 327 328 329 330 332 335 335 334 334 334 331 328 327 326 325 325 325 325 327 328 325 321 319 317 314 314 315 315 313 313 315 318 319 319 317 314 313 311 309 307 304
42 343 326 2 333 300 310 322 315 311 314 315 308 294 304 320 320 291 276 289 303 309 312 312 310 315 321 320 317 320 324 323 319 318 319 317 315 314 313 317 321 320 320 323 325 327 328 327 329 334 334 335 336 336 334 331 328 327 326 325 325 325 325 325 325 322 318 316 316 317 318 319 318 318 316 315 316 317 316 314 312 311 308 305 302 298
30 10 308 319 287 295 306 317 318 323 336 329 332 92 66 342 322 313 306 307 309 310 312 313 314 318 319 320 320 320 321 319 316 314 313 310 309 311 313 317 319 319 321 323 324 327 328 327 331 335 334 334 336 337 335 331 327 326 326 326 326 326 326 324 322 319 317 318 319 319 320 320 319 316 314 314 316 316 314 312 310 308 305 301 298 295
350 336 297 255 229 277 299 331 343 330 318 308 121 102 86 211 312 313 311 311 312 314 323 320 311 312 316 317 317 316 316 315 313 311 310 306 305 312 317 318 319 321 324 324 325 328 329 331 334 335 335 334 334 336 335 332 328 328 328 327 326 325 325 324 321 319 319 321 321 321 321 320 318 316 315 316 317 314 312 310 307 305 303 299 295 292
325 311 301 273 276 308 334 351 333 302 304 329 83 78 343 330 327 317 311 313 317 317 320 310 303 311 319 318 317 317 315 313 310 309 309 307 309 317 320 319 320 323 325 325 327 329 330 334 337 335 334 333 332 335 337 333 329 328 328 327 326 324 323 323 321 322 322 323 323 322 320 319 317 316 316 316 314 313 311 309 306 305 302 298 294 290
122 296 353 332 275 336 323 309 288 291 307 7 69 329 321 326 326 317 309 318 343 349 318 319 318 323 324 320 318 318 315 312 308 308 314 317 319 321 321 320 322 324 325 327 328 329 332 336 337 335 334 332 332 335 337 334 331 328 327 326 325 324 324 324 324 325 325 324 323 321 319 318 316 316 316 315 313 311 310 308 306 304 301 297 294 290
97 188 87 324 288 354 318 304 308 312 322 13 309 298 298 297 305 306 302 307 3 350 333 334 328 325 323 320 320 321 318 314 310 313 324 325 323 323 321 322 326 326 327 329 329 331 335 337 337 336 333 330 335 341 339 333 329 328 325 324 324 323 325 327 328 328 326 323 321 320 319 318 317 315 314 312 311 309 308 307 305 302 300 297 293 290
348 324 106 104 301 321 325 311 309 303 308 316 307 320 335 316 305 306 301 306 346 342 337 336 326 322 324 322 322 322 320 317 313 317 326 325 323 325 325 325 328 329 330 332 332 334 338 338 337 337 333 330 338 346 342 333 328 326 324 323 323 324 326 329 330 329 325 322 321 320 320 318 315 313 311 310 310 309 307 305 303 301 300 297 293 291
344 355 45 26 295 303 310 303 289 273 289 298 314 332 339 321 312 319 313 318 340 341 337 332 324 323 324 321 321 323 321 319 315 316 322 321 320 324 326 328 331 331 332 334 336 338 339 339 339 337 332 331 336 340 340 335 329 326 325 324 324 324 327 330 330 327 324 322 322 320 319 317 314 313 312 311 310 309 307 304 302 302 302 301 300 299
336 343 23 267 282 304 305 295 300 296 286 299 328 340 341 329 329 337 322 320 336 336 330 327 323 321 321 320 321 321 316 313 310 311 317 319 320 324 328 331 332 332 333 336 339 341 340 340 340 335 329 333 341 341 340 337 330 326 327 327 327 328 330 330 328 326 325 324 323 320 318 316 315 315 315 314 312 310 310 310 307 304 306 307 307 307
336 330 333 298 289 297 283 292 314 310 304 351 346 347 358 350 338 333 322 323 331 327 323 324 321 318 319 319 317 316 313 310 310 313 317 320 323 327 331 333 332 334 339 339 340 343 342 340 340 335 330 338 345 343 341 337 332 328 329 329 330 331 330 329 327 327 326 324 322 321 320 319 320 320 318 317 315 312 311 313 312 309 309 309 311 314
323 319 315 293 276 306 307 312 327 316 335 358 352 347 4 356 330 321 323 324 324 323 323 323 319 318 320 317 315 315 313 312 315 319 321 324 328 331 333 335 337 341 342 339 340 345 345 341 338 334 332 343 347 344 341 338 334 331 330 331 332 331 329 330 330 328 326 324 323 323 323 323 323 323 321 320 320 317 313 315 317 316 316 316 317 318
274 291 304 290 292 7 328 303 298 303 322 351 353 338 339 339 327 327 327 322 323 326 326 321 319 321 321 317 317 317 316 317 321 324 326 329 332 334 336 341 346 343 339 340 345 347 345 341 336 333 336 347 348 345 342 339 336 332 331 332 332 331 331 332 331 328 326 325 325 325 325 325 325 325 324 324 325 322 320 321 322 320 320 322 321 319
235 201 217 255 235 210 259 268 285 300 318 343 343 327 325 328 331 334 328 323 324 325 325 323 321 321 320 320 320 320 320 324 326 327 331 334 334 339 345 348 346 340 340 347 348 345 343 340 335 335 345 350 346 344 342 340 338 333 332 334 334 332 333 332 330 328 326 326 327 326 326 325 325 326 326 328 328 327 325 325 323 321 322 324 321 316
252 232 180 284 285 277 260 269 296 316 329 335 334 329 330 331 335 335 328 325 324 322 323 323 320 321 324 324 325 325 325 328 329 331 336 337 340 347 348 344 341 342 347 350 345 341 341 339 337 344 352 347 343 342 342 341 339 335 334 335 334 333 333 332 329 329 328 327 328 328 327 327 327 328 330 331 331 331 328 327 325 321 319 320 316 311
284 264 93 325 313 315 308 307 321 330 332 333 332 333 334 333 334 334 329 325 324 322 322 323 323 326 329 329 330 330 329 331 336 338 340 343 349 349 344 339 343 350 351 347 340 338 341 343 345 350 349 343 341 342 341 340 341 339 336 335 335 335 334 332 330 330 329 329 329 329 330 330 329 330 333 335 335 335 333 331 328 321 315 315 315 312
257 246 316 312 312 309 307 316 328 329 326 329 333 333 333 332 331 331 331 327 325 325 326 328 331 334 333 333 334 333 332 336 341 341 342 348 351 344 339 342 350 351 346 340 338 342 348 349 348 347 343 340 341 341 341 341 340 339 338 337 337 337 335 333 332 331 329 330 330 330 330 331 331 332 333 334 334 335 332 330 329 322 314 313 312 306
290 340 322 312 313 307 306 321 333 329 321 327 334 331 331 331 328 329 331 330 330 331 332 334 338 338 337 337 339 337 336 339 343 344 344 345 343 339 343 350 351 346 340 338 343 353 353 348 343 342 341 340 340 340 340 341 340 340 340 339 339 339 337 334 333 332 331 331 332 331 331 331 332 332 331 330 331 332 330 328 325 319 315 317 316 308
347 339 329 327 326 318 317 329 336 329 320 324 330 330 330 331 330 332 334 335 338 340 339 337 338 338 340 343 344 341 339 342 345 344 342 341 341 343 348 349 345 339 339 344 353 355 349 342 340 341 341 340 341 341 340 339 339 340 341 341 341 341 338 335 334 332 332 333 333 331 331 331 330 330 330 329 329 329 329 329 328 322 316 318 322 320
344 329 331 332 317 309 316 326 331 324 312 316 324 328 330 334 337 338 339 340 341 342 342 341 338 339 342 345 346 346 346 345 343 341 341 343 346 346 346 345 341 339 346 354 354 348 343 341 342 342 341 341 341 340 339 339 340 341 342 342 342 341 339 337 335 332 332 333 332 330 330 329 329 329 330 329 330 329 328 329 333 334 329 325 324 325